Location: Newark
(43.0658°N, 122.2322°W)
Time: 19:48:44
(UTC+00:00)

Envisat - Visible Passes

Search period start: 28 September 2020 00:00
Search period end: 08 October 2020 00:00
Orbit: 764 x 766 km, 98.1° (Epoch: 28 September)

Date Brightness Start Highest point End Pass type
(mag) Time Alt. Az. Time Alt. Az. Time Alt. Az.
28 Sep 6.5 02:55:20 10° WSW 02:57:25 12° W 02:59:30 10° WNW visible
28 Sep 5.6 13:21:14 10° NE 13:25:26 26° E 13:29:37 10° SSE visible
29 Sep 5.6 02:15:56 10° SSW 02:20:13 27° W 02:24:33 10° NW visible
29 Sep 6.5 12:46:37 10° ENE 12:48:14 11° E 12:49:51 10° ESE visible
01 Oct 6.2 02:42:51 10° SW 02:45:55 16° W 02:48:59 10° NW visible
01 Oct 6.0 13:10:14 10° NE 13:13:58 20° E 13:17:42 10° SE visible
03 Oct 5.0 13:34:58 10° NNE 13:39:37 35° E 13:44:14 10° SSE visible
04 Oct 6.0 02:30:44 10° SW 02:34:26 20° W 02:38:09 10° NW visible
04 Oct 6.2 12:59:23 10° NE 13:02:30 16° E 13:05:35 10° SE visible
06 Oct 6.6 02:58:40 10° WSW 03:00:10 11° W 03:01:41 10° WNW visible
06 Oct 5.4 13:23:51 10° NE 13:28:11 28° E 13:32:29 10° SSE visible
07 Oct 5.6 02:18:48 10° SSW 02:22:58 25° W 02:27:09 10° NW visible
07 Oct 6.4 12:48:50 10° ENE 12:50:59 13° E 12:53:08 10° ESE visible
